Tracking 21474 objects as of 25-Sep-2020
HD Live streaming from Space Station
objects crossing your sky now

DMSP 5D-2 F11 DEB

Track DMSP 5D-2 F11 DEB now!
10-day predictions


NORAD ID: 29089
Int'l Code: 1991-082CJ
Perigee: 585.3 km
Apogee: 599.8 km
Inclination: 98.6 °
Period: 96.4 minutes
Semi major axis: 6963 km
RCS: 0.0065 m2 (small)
Launch date: November 28, 1991
Source: United States (US)
Launch site: AIR FORCE WESTERN TEST RANGE (AFWTR)

Note: This is SATELLITE DEBRIS
aabbcc
Your satellite tracking list
Your tracking list is empty




NASA's NSSDC Master Catalog

Two Line Element Set (TLE):
1 29089U 91082CJ  20269.36508192 +.00010060 +00000-0 +94756-3 0  9992
2 29089 098.5912 110.7261 0010386 334.7794 148.9800 14.94022686860227
Source of the keplerian elements: AFSPC